NOAA 16 DEB, 41215

Orbit data source: Space-Track

NOAA 16 DEB, 41215 is space debris in SSO originally from a launch on Thu, 21 Sep 2000 UTC launched from the Air Force Western Test Range (AFWTR). Debris objects in space refer to the collection of defunct objects orbiting the Earth. Examples of debris include non-operational satellites, rocket bodies, and fragments generated from explosions, collisions, or faulty payload assembly.

Loading next visibility...
Identifier
41215, 2000-055DU
Orbit
SSO
Country
Flag of USUS
Related business
Manufacturer
Unknown
Mission
Spacecraft
Bus & Motor
Unknown
Mass
Unknown
Launch date (UTC)
2000-09-21 (25 years ago)
Launch vehicle
Unknown
Launch site
Air Force Western Test Range (AFWTR)
Object type
Payload
Rocket body
Debris
Shape & HBR
Unknown shape, 0.1 m
Radar Cross Section
Small (<0.1 m²)

Expand to show TLE details & history
Last TLE update: 13 hours ago

TLE from 13 hours ago
0 NOAA 16 DEB
1 41215U 00055DU  25291.20701739  .00013899  00000-0  38951-2 0  9999
2 41215  98.8059  57.8441 0022776  88.9684 271.4115 14.45996176512461
Epoch: 2025-10-18T04:58Z
TLE epoch observation values (Epoch: 2025-10-18T04:58:06.302Z)
Latitude
-0.00011°
Longitude
-43.62349°
Altitude
741.34 km
Speed
7.484 km/s
True Right ascension
03h 51m 22s
True Declination
0° 00' 00"
Sunlit
Object was in full shadow at epoch
Visualization orbit readout
Latitude
Unknown
Longitude
Unknown
Altitude
Unknown
Speed
Unknown
Apparent Right ascension
Unknown
Apparent Declination
Unknown
Sunlit
N/A
Visualization observer readout
Local Sidereal Time
12:30:50
Azimuth
Unknown
Elevation
Unknown
Doppler factor
Unknown
Orbital elements
Apogee altitude
752.087 km
Perigee altitude
719.681 km
Semi-major axis
7,114.021 km
Eccentricity
0.00228
Inclination
98.8059°
RAAN
57.8441°
Arg. of periapsis
88.9684°
True anomaly
271.15057°
Mean anomaly
271.4115°
Eccentric anomaly
271.28104°
Mean motion
3.61718 °/min
Orbital period
99.52 mins
BSTAR
0.0038951
Loading maneuver chart data...
Computing Atmospheric mass density...

Documentation

Showing up to 5 results
|